SWA3694 KDAL-KORF

Flight info

Callsign SWA3694
Flight time N/A
Altitude 39000
Route LNDRE5 FORCK ELD IZAAC Q30 VLKNN THRSR HRTWL Q54 NUTZE KOHLS1
Aircraft B737/M-SADE2E3GIJ4RWZ/LB1D1

Departure

Time N/A
Airport Dallas Love Field (KDAL)

Arrival

Time 2026-05-08 19:15
Airport Norfolk International Airport (KORF)
Time Latitude Longitude Altitude Speed Heading
2026-05-08 19:08 36.66652 -76.46187 4584 ft 262 kts 50°
2026-05-08 19:09 36.67799 -76.44432 4227 ft 259 kts 50°
2026-05-08 19:09 36.68933 -76.42695 3882 ft 258 kts 50°
2026-05-08 19:09 36.70044 -76.40995 3769 ft 247 kts 50°
2026-05-08 19:09 36.71110 -76.39360 3620 ft 238 kts 50°
2026-05-08 19:10 36.72132 -76.37794 3521 ft 225 kts 50°
2026-05-08 19:10 36.73115 -76.36286 3451 ft 223 kts 50°
2026-05-08 19:10 36.74102 -76.34790 3354 ft 224 kts 47°
2026-05-08 19:10 36.75278 -76.33519 3156 ft 222 kts 36°
2026-05-08 19:11 36.76101 -76.32803 3067 ft 213 kts 33°
2026-05-08 19:11 36.77662 -76.31422 2765 ft 204 kts 37°
2026-05-08 19:11 36.78777 -76.30352 2506 ft 198 kts 37°
2026-05-08 19:11 36.79850 -76.29310 2235 ft 192 kts 38°
2026-05-08 19:12 36.80543 -76.28637 2069 ft 188 kts 38°
2026-05-08 19:12 36.81536 -76.27671 1816 ft 173 kts 38°
2026-05-08 19:12 36.82451 -76.26784 1599 ft 161 kts 38°
2026-05-08 19:12 36.83321 -76.25940 1405 ft 156 kts 39°
2026-05-08 19:13 36.84162 -76.25123 1192 ft 150 kts 39°
2026-05-08 19:13 36.84969 -76.24341 995 ft 143 kts 39°
2026-05-08 19:13 36.85710 -76.23621 849 ft 128 kts 39°
2026-05-08 19:13 36.86408 -76.22944 662 ft 126 kts 38°
2026-05-08 19:14 36.87100 -76.22269 477 ft 126 kts 38°
2026-05-08 19:14 36.87791 -76.21600 306 ft 125 kts 38°
2026-05-08 19:14 36.88482 -76.20933 123 ft 125 kts 38°
2026-05-08 19:14 36.89159 -76.20276 11 ft 117 kts 36°
2026-05-08 19:15 36.89659 -76.19796 5 ft 59 kts 38°
2026-05-08 19:15 36.89894 -76.19569 2 ft 34 kts 37°
2026-05-08 19:15 36.90015 -76.19512 3 ft 16 kts 323°
2026-05-08 19:15 36.90057 -76.19618 2 ft 14 kts 244°
2026-05-08 19:16 36.89987 -76.19693 3 ft 13 kts 219°
2026-05-08 19:16 36.89927 -76.19773 2 ft 13 kts 263°
2026-05-08 19:16 36.89972 -76.19864 3 ft 12 kts 306°
2026-05-08 19:16 36.90000 -76.19965 2 ft 12 kts 284°
2026-05-08 19:17 36.90008 -76.20068 3 ft 12 kts 265°
2026-05-08 19:17 36.90014 -76.20167 2 ft 10 kts 283°
2026-05-08 19:17 36.89980 -76.20214 2 ft 8 kts 190°
2026-05-08 19:17 36.89963 -76.20218 2 ft 0 kts 192°